INNOSAT 16 (RS92S7)

Last updated on Mon Sep 15 2025 00:03:10 GMT+0000 (Coordinated Universal Time)

1 64878U 25155C 25257.15110824 .00003247 00000+0 14680-3 0 9991 2 64878 97.4178 221.6336 0013510 78.4680 281.8072 15.21565498 38642
UTC large
Height (km)
Speed (km/s)
/
Latitude / Longitude
Inclination (degrees)
Orbital Period (minutes)
Azimuth
Elevation
Range (km)
Doppler Factor

Next 0 passes for location: London (51.5072 / 0.1276)

Sorry there are no passes over London.